This demonstration page uses our WeatherBlox Daily Observations layout. Learn more.

Left ArrowRight Arrow

44.8408, -93.29828

Hourly Observations for May 5, 2015

Temp ( °F °C ) Dew Point ( °F °C ) Humidity (%) Winds ( mph kmh ) Pressure ( in mb ) Visibility ( mi km ) Precip ( " mm )
12:53 am 00:53 Partly Cloudy 57 13.9 28 -2.2 33 33 NNE 5 7 30.20 1023 10 16 0.00 0.00
1:53 am 01:53 Partly Cloudy 56 13.3 31 -0.6 39 39 NE 8 13 30.20 1023 10 16 0.00 0.00
2:53 am 02:53 Mostly Clear 54 12.2 30 -1.1 40 40 NE 6 9 30.18 1022 10 16 0.00 0.00
3:53 am 03:53 Mostly Clear 54 12.2 28 -2.2 37 37 E 10 17 30.18 1022 10 16 0.00 0.00
4:53 am 04:53 Partly Cloudy 53 11.7 28 -2.2 38 38 NE 6 9 30.18 1022 10 16 0.00 0.00
5:53 am 05:53 Partly Cloudy 52 11.1 30 -1.1 43 43 ENE 8 13 30.18 1022 10 16 0.00 0.00
6:53 am 06:53 Partly Cloudy 53 11.7 35 1.7 51 51 ENE 8 13 30.19 1022 10 16 0.00 0.00
7:53 am 07:53 Partly Cloudy 55 12.8 39 3.9 55 55 E 12 19 30.20 1023 10 16 0.00 0.00
8:53 am 08:53 Partly Cloudy 59 15 40 4.4 49 49 ESE 12 19 30.21 1023 10 16 0.00 0.00
9:53 am 09:53 Mostly Sunny 62 16.7 43 6.1 50 50 ESE 16 26 30.19 1023 10 16 0.00 0.00
10:53 am 10:53 Mostly Sunny 65 18.3 45 7.2 49 49 ESE 17 28 30.20 1023 10 16 0.00 0.00
11:53 am 11:53 Mostly Sunny 68 20 44 6.7 42 42 ESE 17 28 30.18 1022 10 16 0.00 0.00
12:53 pm 12:53 Partly Cloudy 70 21.1 45 7.2 41 41 ESE 16 26 30.17 1022 10 16 0.00 0.00
1:53 pm 13:53 Mostly Cloudy 69 20.6 45 7.2 42 42 E 16 26 30.17 1022 10 16 0.00 0.00
2:53 pm 14:53 Mostly Cloudy 67 19.4 47 8.3 49 49 SSE 18 30 30.16 1022 10 16 0.00 0.00
3:53 pm 15:53 Cloudy 67 19.4 48 8.9 51 51 ESE 20 31 30.15 1021 10 16 0.00 0.00
4:53 pm 16:53 Cloudy 66 18.9 49 9.4 54 54 SE 14 22 30.14 1021 10 16 0.00 0.00
5:53 pm 17:53 Mostly Cloudy 66 18.9 49 9.4 54 54 E 17 28 30.12 1020 10 16 0.00 0.00
6:53 pm 18:53 Cloudy 64 17.8 51 10.6 63 63 SE 16 26 30.12 1020 10 16 0.00 0.00
7:46 pm 19:46 Cloudy with Light Rain 61 16 54 12 77 77 SE 12 19 30.09 1019 8 13 0.00 0.00
7:53 pm 19:53 Cloudy 60 15.6 54 12.2 80 80 SSE 10 17 30.13 1020 8 13 0.00 0.03
8:39 pm 20:39 Cloudy with Light Rain 58 14.4 54 12.2 87 87 ESE 12 19 30.12 1020 5 8 0.00 0.03
8:53 pm 20:53 Cloudy with Light Rain 58 14.4 54 12.2 87 87 SE 10 17 30.13 1020 8 13 0.02 0.51
9:10 pm 21:10 Cloudy 57 14 54 12 88 88 ESE 10 17 30.12 1020 8 13 0.00 0.00
9:53 pm 21:53 Cloudy 57 13.9 54 12.2 90 90 SE 9 15 30.14 1021 7 11 0.00 0.03
10:24 pm 22:24 Cloudy 57 13.9 53 11.7 87 87 ESE 13 20 30.15 1021 10 16 0.00 0.00
10:53 pm 22:53 Cloudy 57 13.9 53 11.7 87 87 ESE 14 22 30.13 1020 8 13 0.00 0.00
11:25 pm 23:25 Cloudy 56 13.3 53 11.7 90 90 SE 10 17 30.12 1020 7 11 0.00 0.00
11:53 pm 23:53 Cloudy 56 13.3 53 11.7 90 90 SE 13 20 30.13 1020 7 11 0.00 0.00

Powered by AerisWeather